Ahmadabad, India

2:00 PM IST on February 26, 2017 (GMT +0530)
Ahmedabad

Weather History for VAAH - October, 2011

Change the Weather History Date:

Tuesday, October 11, 2011

  Actual Average Record
Temperature  
Mean Temperature 85 °F -  
Max Temperature 97 °F 91 °F 101 °F (2014)
Min Temperature 73 °F 67 °F 65 °F (2012)
Cooling Degree Days 20    
Growing Degree Days 35 (Base 50)    
Moisture  
Dew Point 66 °F    
Average Humidity 50    
Maximum Humidity 74    
Minimum Humidity 26    
Precipitation  
Precipitation 0.00 in 0.03 in - ()
Sea Level Pressure  
Sea Level Pressure 29.88 in    
Wind  
Wind Speed 2 mph ()    
Max Wind Speed 7 mph    
Max Gust Speed -    
Visibility 2.6 miles    
Events      
Averages and records for this station are not official NWS values.
T = Trace of Precipitation, MM = Missing Value Source: Averaged Metar Reports

Daily Weather History Graph

Daily Weather History Graph

Search for Another Location

Airport or City:

Trip Planner

Search our weather history database for the weather conditions in past years. The results will help you decide how hot, cold, wet, or windy it might be!

Date:

Astronomy

Oct. 11, 2011 Rise Set
Actual Time 6:34 AM IST 6:17 PM IST
Civil Twilight 6:11 AM IST 6:40 PM IST
Nautical Twilight 5:45 AM IST 7:06 PM IST
Astronomical Twilight 5:19 AM IST 7:32 PM IST
Moon 5:40 PM IST (10/11) 5:46 AM IST (10/11)
Length of Visible Light 12h 28m
Length of Day
11h 43m
Waxing Gibbous, 99% of the Moon is Illuminated
Oct 11
Waxing Gibbous
Oct 12
Full
Oct 20
Last Quarter
Oct 27
New
Nov 2
First Quarter

Hourly Weather History & Observations

Time (IST) Temp. Heat Index Dew Point Humidity Pressure Visibility Wind Dir Wind Speed Gust Speed Precip Events Conditions
12:40 AM 84.2 °F 87.3 °F 68.0 °F 58% 29.86 in 2.5 mi Calm Calm - N/A   Haze
1:10 AM 82.4 °F 88.2 °F 73.4 °F 74% 29.86 in 2.5 mi Calm Calm - N/A   Haze
2:30 AM 80 °F - 65 °F 52% 29.86 in 1 mi NW 4.6 mph - -   Haze
2:40 AM 82.4 °F 85.4 °F 68.0 °F 62% 29.86 in 2.5 mi Calm Calm - N/A   Haze
3:10 AM 82.4 °F 85.4 °F 68.0 °F 62% 29.86 in 2.5 mi Calm Calm - N/A   Haze
3:40 AM 80.6 °F 82.7 °F 66.2 °F 61% 29.86 in 2.5 mi Calm Calm - N/A   Haze
4:10 AM 80.6 °F 83.2 °F 68.0 °F 65% 29.86 in 2.5 mi Calm Calm - N/A   Haze
4:40 AM 80.6 °F 82.7 °F 66.2 °F 61% 29.86 in 2.5 mi Calm Calm - N/A   Haze
5:10 AM 80.6 °F 83.2 °F 68.0 °F 65% 29.86 in 2.5 mi Calm Calm - N/A   Haze
5:40 AM 80.6 °F 83.9 °F 69.8 °F 70% 29.86 in 2.5 mi Calm Calm - N/A   Haze
6:10 AM 78.8 °F - 69.8 °F 74% 29.89 in 2.5 mi Calm Calm - N/A   Haze
6:40 AM 78.8 °F - 69.8 °F 74% 29.89 in 2.5 mi Calm Calm - N/A   Haze
7:10 AM 78.8 °F - 69.8 °F 74% 29.92 in - Calm Calm - N/A   Haze
7:40 AM 80.6 °F 84.6 °F 71.6 °F 74% 29.92 in 2.5 mi Calm Calm - N/A   Haze
8:10 AM 82.4 °F 87.2 °F 71.6 °F 70% 29.92 in 2.2 mi Calm Calm - N/A   Haze
8:30 AM 81 °F - 68 °F 57% 29.93 in 2 mi East 2.3 mph - -   Haze
8:40 AM 86.0 °F 90.4 °F 69.8 °F 58% 29.95 in 2.2 mi Calm Calm - N/A   Smoke
9:10 AM 87.8 °F 90.4 °F 66.2 °F 49% 29.95 in 2.2 mi Calm Calm - N/A   Smoke
9:40 AM 91.4 °F 94.0 °F 66.2 °F 43% 29.95 in 2.2 mi Calm Calm - N/A   Smoke
10:10 AM 91.4 °F 92.1 °F 62.6 °F 38% 29.95 in 2.5 mi Calm Calm - N/A   Smoke
10:40 AM 93.2 °F 94.1 °F 62.6 °F 36% 29.95 in 2.5 mi East 5.8 mph - N/A   Smoke
11:30 AM 93 °F - 62 °F 26% 29.93 in 2 mi ENE 3.5 mph - -   Scattered Clouds
11:40 AM 95.0 °F 96.0 °F 62.6 °F 34% 29.92 in 3.1 mi East 6.9 mph - N/A   Smoke
12:10 PM 95.0 °F 96.0 °F 62.6 °F 34% 29.92 in 3.1 mi East 6.9 mph - N/A   Smoke
12:40 PM 96.8 °F 99.0 °F 64.4 °F 34% 29.89 in 3.1 mi East 6.9 mph - N/A   Smoke
1:10 PM 96.8 °F 99.0 °F 64.4 °F 34% 29.89 in 3.1 mi ENE 6.9 mph - N/A   Smoke
1:40 PM 96.8 °F 99.0 °F 64.4 °F 34% 29.86 in 3.1 mi East 4.6 mph - N/A   Smoke
2:10 PM 96.8 °F 99.0 °F 64.4 °F 34% 29.86 in 3.1 mi ENE 3.5 mph - N/A   Smoke
2:30 PM 96 °F - 66 °F 27% 29.85 in 2 mi Calm Calm - -   Scattered Clouds
2:40 PM 98.6 °F 101.0 °F 64.4 °F 32% 29.83 in 3.1 mi Calm Calm - N/A   Smoke
3:40 PM - - - N/A% 29.83 in 3.1 mi ENE 3.5 mph - N/A   Smoke
4:10 PM 98.6 °F 100.0 °F 62.6 °F 30% 29.83 in 3.7 mi ENE 4.6 mph - N/A   Unknown
4:40 PM 98.6 °F 99.4 °F 60.8 °F 29% 29.83 in 3.7 mi East 3.5 mph - N/A   Unknown
5:10 PM 96.8 °F 96.2 °F 59.0 °F 28% 29.80 in 3.7 mi East 3.5 mph - N/A   Unknown
5:30 PM 94 °F - 81 °F 58% 29.82 in 2 mi ENE 3.5 mph - -   Scattered Clouds
5:40 PM 95.0 °F 95.2 °F 60.8 °F 32% 29.83 in 3.7 mi East 3.5 mph - N/A   Unknown
6:40 PM 93.2 °F 92.6 °F 59.0 °F 32% 29.83 in 2.5 mi East 2.3 mph - N/A   Smoke
7:10 PM 91.4 °F 94.0 °F 66.2 °F 43% 29.83 in 2.5 mi NE 5.8 mph - N/A   Smoke
7:40 PM 89.6 °F 92.2 °F 66.2 °F 46% 29.86 in 2.5 mi NE 4.6 mph - N/A   Smoke
8:10 PM 86.0 °F 87.3 °F 64.4 °F 48% 29.86 in 2.5 mi NE 4.6 mph - N/A   Smoke
8:30 PM 83 °F - 66 °F 48% 29.88 in 2 mi Calm Calm - -   Scattered Clouds
8:40 PM 87.8 °F 89.4 °F 64.4 °F 46% 29.86 in 2.5 mi ENE 5.8 mph - N/A   Smoke
9:10 PM 86.0 °F 88.2 °F 66.2 °F 51% 29.89 in 2.5 mi NE 4.6 mph - N/A   Smoke
9:40 PM 84.2 °F 87.3 °F 68.0 °F 58% 29.89 in 2.5 mi NNE 4.6 mph - N/A   Smoke
10:10 PM 84.2 °F 87.3 °F 68.0 °F 58% 29.89 in 2.5 mi NE 4.6 mph - N/A   Smoke
11:10 PM 84.2 °F 88.4 °F 69.8 °F 62% 29.89 in 2.5 mi ENE 6.9 mph - N/A   Smoke
11:30 PM 77 °F - 67 °F 63% 29.89 in 2 mi Calm Calm - -   Haze
11:40 PM 84.2 °F 87.3 °F 68.0 °F 58% 29.89 in 2.5 mi ENE 5.8 mph - N/A   Smoke